Zurück zum Katalog

STARLINK-36476

AktivKommunikationVLEO
NORAD 67314·PAYLOAD·🇺🇸 United States

Gestartet Jan 4, 2026 von Cape Canaveral Space Force Station

Loading…

Nächste Überflüge (nächste 24 Stunden)

TLE

AktuellSource: CelesTrak SupGP

Epoche: Sep 14, 2026, 21:24 UTC

1 67314C 26002K   26257.89215278 -.00017669  00000+0 -63997-3 0  2579
2 67314  43.0033 336.8037 0001667 268.6276 118.9137 15.27587769    11

Verfolge STARLINK-36476 in Echtzeit mit AllMySat

Download on the App Store